{"data":{"norad_id":48802,"epoch":"2026-09-19T17:37:07.100544Z","epoch_age_seconds":88099,"freshness":"FRESH","line1":"1 48802U 21045AM  26262.73410996 -.00000086  00000+0 -26240-3 0  9993","line2":"2 48802  87.8991 240.3513 0001785  58.5064 301.6241 13.15547904256776","mean_motion":13.15547904,"eccentricity":0.0001785,"inclination_deg":87.8991,"raan_deg":240.3513,"arg_perigee_deg":58.5064,"mean_anomaly_deg":301.6241,"bstar":-0.0002624,"rev_number":25677,"period_min":109.46009610305,"perigee_km":1200.4202348918,"apogee_km":1203.1262628507,"semimajor_km":7579.9102488712,"source":"CELESTRAK","updated_at":"2026-09-20T09:00:44.622872Z"}}